Lapse_Rate
0.7 0.5 0.8 0.8 1.0 0.7 1.0 1.5 1.2 0.7 1.0 1.4 0.9 0.5 -0.3 -1.0 -1.2 2.4 3.6 6.3 4.2 2.7 3.2 7.1 8.4 9.0 9.1 8.5 8.6 8.5 6.5 6.5 6.5 6.5 6.5 7.4 6.6 7.7 8.2 7.5 7.8 8.2 8.1 8.6 8.8
0.9 0.9 0.9 0.7 0.9 0.8 0.8 1.3 1.3 1.1 1.4 1.7 0.9 0.1 -0.7 -1.1 1.4 3.5 5.3 2.3 1.9 2.0 8.8 8.9 8.5 8.8 8.2 7.9 8.0 7.0 6.5 6.5 6.6 6.6 6.5 7.2 7.1 7.3 7.1 7.2 7.4 7.8 8.7 8.9 8.7
0.8 0.9 0.8 1.0 0.9 0.8 0.8 1.4 1.1 1.5 1.8 1.4 0.5 -0.3 -0.6 -0.8 4.0 8.2 3.8 1.4 1.2 3.2 9.6 9.4 9.1 8.5 7.4 7.8 7.4 7.0 6.5 6.5 6.8 7.3 7.4 7.0 7.1 7.8 7.1 6.5 7.4 7.4 8.1 8.0 8.0
0.7 1.1 0.9 1.0 1.1 0.9 0.8 1.3 1.1 1.6 1.5 1.2 0.2 -0.1 -0.5 2.1 6.5 9.2 1.0 -0.2 0.2 5.8 8.7 8.9 8.5 7.5 6.8 6.5 7.5 6.5 6.9 7.0 7.2 7.6 7.2 6.8 7.6 7.0 7.3 7.4 8.1 8.3 8.6 8.3 8.2
0.7 1.1 0.9 0.8 1.2 0.8 0.9 1.1 1.0 1.3 1.2 0.9 0.1 -0.5 2.1 6.4 7.8 5.9 -0.2 0.2 4.4 7.4 8.9 8.5 7.9 7.5 6.5 6.9 7.1 6.5 6.7 7.2 7.4 7.4 7.4 7.5 7.0 6.8 7.2 8.1 8.5 8.7 8.6 8.5 8.6
0.9 1.1 1.0 0.7 1.0 0.8 1.0 1.0 0.8 1.2 0.9 0.4 -0.2 -0.9 3.5 6.9 8.1 6.4 5.3 5.2 6.6 7.6 8.9 8.8 8.1 8.2 7.2 6.9 6.6 7.0 6.9 7.0 7.3 7.3 7.4 6.7 6.9 7.2 7.6 8.2 8.3 8.3 8.5 8.6 8.6
1.1 1.2 1.2 0.9 1.0 0.8 0.8 0.9 0.6 0.7 0.6 -0.1 -0.4 1.0 4.0 7.8 8.0 6.4 6.5 7.7 7.6 8.2 8.6 9.0 8.9 7.9 7.7 6.6 7.6 7.2 6.5 6.5 6.8 7.1 6.7 7.3 6.5 6.5 7.7 8.0 7.9 8.1 8.3 8.5 8.7
1.4 1.4 1.3 0.9 0.6 0.4 0.6 0.5 0.3 0.4 0.4 -0.3 -0.4 1.2 7.1 6.6 7.0 5.9 7.1 6.5 6.9 8.2 9.2 9.2 9.0 8.2 7.6 7.8 7.0 6.5 6.5 6.5 6.5 6.8 7.0 6.9 6.5 6.7 7.8 7.7 7.6 7.9 8.2 8.4 8.5
1.6 1.2 1.0 0.8 0.5 0.5 0.4 0.1 0.1 0.5 0.2 -0.4 1.7 3.0 7.4 6.1 6.6 8.4 7.7 8.2 6.5 7.4 8.5 7.7 8.5 7.6 7.5 6.5 6.5 6.5 6.5 6.5 6.5 6.8 6.5 6.5 6.5 6.8 7.7 7.6 7.4 7.8 8.1 8.3 8.4
1.6 1.2 1.0 0.9 0.4 0.4 0.1 -0.0 0.2 0.1 0.7 2.0 3.7 5.9 6.1 7.8 8.3 7.9 7.2 7.1 8.2 8.2 8.0 7.9 7.6 6.5 6.5 6.5 6.5 6.5 6.5 6.5 6.5 6.5 6.5 6.5 6.5 6.6 7.5 7.5 7.5 7.8 8.0 8.2 8.3
1.7 1.0 1.0 0.9 0.3 0.1 0.4 3.4 4.8 5.7 3.7 7.7 7.7 7.6 7.5 8.4 7.4 8.0 8.4 7.4 8.4 7.7 6.5 7.1 6.5 6.5 6.5 6.5 6.5 6.5 6.5 6.5 6.5 6.5 6.5 6.5 6.5 6.5 7.2 7.3 7.4 7.6 7.9 8.0 8.2
1.7 1.0 1.0 0.6 0.2 -0.1 1.6 6.0 8.2 7.5 7.0 6.3 6.5 6.2 6.3 7.0 7.5 8.0 8.1 7.5 7.1 6.5 6.6 6.5 6.5 6.5 6.5 6.5 6.5 6.5 6.5 6.5 6.5 6.5 6.5 6.5 6.5 6.5 6.9 7.0 7.4 7.5 7.7 8.0 8.2
1.6 1.1 0.9 0.4 -0.2 0.0 2.6 4.7 7.2 7.4 7.1 7.3 7.2 7.8 7.8 7.2 7.3 7.5 8.2 7.7 6.6 6.5 6.5 6.5 6.5 6.6 6.5 6.5 6.5 6.5 6.5 6.5 6.5 6.5 6.5 6.5 6.5 6.5 6.6 7.2 7.5 7.8 7.9 8.1 8.2
1.5 1.1 0.8 -0.2 1.7 3.7 4.2 6.1 6.0 5.7 6.5 6.5 6.9 7.6 7.4 8.0 6.9 7.7 7.4 7.7 6.7 6.5 6.5 6.5 6.6 6.5 6.5 6.5 6.5 6.5 6.5 6.5 6.5 6.5 6.5 6.5 6.5 6.5 6.5 6.5 6.8 7.4 7.8 8.0 8.3
1.5 0.9 0.5 1.4 4.9 5.6 7.6 6.2 5.8 7.0 6.5 6.5 6.8 8.3 7.8 7.2 7.3 7.4 6.4 7.8 6.5 6.5 6.5 6.5 6.5 6.5 6.5 6.5 6.5 6.5 6.5 6.5 6.5 6.5 6.5 6.5 6.5 6.5 6.5 6.5 6.5 7.1 7.6 8.1 8.4
1.5 0.7 0.8 0.7 3.3 5.0 5.4 6.4 7.1 6.5 6.5 6.5 6.9 6.6 6.5 7.0 7.0 7.6 7.4 7.7 7.7 6.5 6.5 6.5 7.2 6.6 6.5 6.5 6.5 6.5 6.5 6.5 6.5 6.5 6.5 6.5 6.5 6.5 6.5 6.5 6.5 7.2 7.7 8.0 8.3
1.4 0.6 1.1 3.1 8.1 4.5 5.4 7.8 6.5 6.5 6.5 6.5 6.5 6.5 6.5 6.5 6.5 6.5 6.5 6.5 6.5 6.5 6.5 6.5 6.5 6.6 6.8 6.5 6.5 6.5 6.5 6.5 6.5 6.5 6.5 6.5 6.5 6.5 6.5 6.5 6.7 6.9 7.7 8.1 8.4
1.3 0.6 1.1 4.2 5.3 4.2 6.3 6.7 6.5 6.5 6.5 6.5 6.5 6.5 6.5 6.5 6.5 6.5 6.5 6.5 6.5 6.5 6.5 6.5 6.5 6.5 6.5 6.5 6.5 6.5 6.5 6.5 6.5 6.5 6.5 6.5 6.5 6.5 6.5 7.0 7.4 7.8 8.0 8.2 8.3
1.3 2.0 1.9 3.3 2.7 4.4 7.7 6.5 6.5 6.5 6.5 6.5 6.5 6.5 6.5 6.5 6.5 6.5 6.5 6.5 6.5 6.5 6.5 6.5 6.5 6.5 6.5 6.5 6.5 6.5 6.5 6.5 6.5 6.5 6.5 6.5 6.5 6.5 6.5 6.5 7.1 7.4 7.8 7.9 8.3
3.9 3.5 6.6 4.5 4.5 6.9 6.7 6.5 6.5 6.6 6.5 6.5 6.5 6.5 6.5 6.5 6.5 6.5 6.5 6.5 6.5 6.6 6.8 6.5 6.5 6.5 6.5 6.7 6.7 6.5 6.5 6.5 6.5 6.5 6.5 6.5 6.5 6.5 6.5 6.5 6.5 6.8 7.4 7.9 8.3
8.1 7.9 5.8 4.6 6.6 7.9 6.5 6.5 6.5 7.2 7.1 6.5 6.5 6.5 6.5 6.5 6.5 6.5 6.5 6.5 6.5 6.5 6.7 6.5 6.5 6.5 6.5 6.5 6.5 6.5 6.5 6.5 6.5 6.5 6.5 6.5 6.5 6.5 6.5 6.5 6.5 7.0 7.6 7.9 8.1
8.5 6.5 5.3 5.7 7.0 6.9 6.5 6.5 6.3 6.7 7.2 6.5 6.5 6.5 6.5 6.5 6.5 6.5 6.5 6.5 7.1 6.8 6.5 6.5 6.5 6.5 6.5 6.5 6.5 6.5 6.5 6.5 6.5 6.5 6.5 6.5 6.5 6.5 6.5 6.7 7.0 7.3 7.7 8.0 8.3
7.9 7.6 7.1 5.9 6.5 6.5 6.6 6.5 6.8 6.5 6.5 6.5 6.5 6.5 6.5 6.5 6.5 6.5 6.5 6.9 7.1 6.6 6.5 6.5 6.5 6.5 6.5 6.5 6.5 6.5 6.5 6.5 6.5 6.5 6.5 6.5 6.5 6.5 6.7 6.8 7.3 7.3 7.7 8.0 8.2
7.9 6.5 7.8 8.1 7.5 6.5 6.5 6.5 6.5 7.1 6.6 6.8 6.5 6.6 6.5 6.5 6.5 6.5 6.5 6.6 7.1 6.9 3.8 6.3 6.5 6.5 6.5 6.5 6.5 6.5 6.5 6.5 6.5 6.5 6.5 6.5 6.5 6.5 6.5 6.5 7.0 7.4 7.8 8.1 8.2
7.6 6.7 7.4 6.5 6.6 6.5 6.5 6.5 6.5 6.5 6.8 7.0 6.5 6.5 6.5 6.5 6.5 6.5 6.5 6.5 6.7 5.0 6.7 6.5 6.5 6.5 6.5 6.5 6.5 6.5 6.5 6.5 6.5 6.5 6.5 6.5 6.5 6.5 6.5 6.5 7.0 7.5 7.7 7.8 8.0
7.4 7.0 7.4 7.2 7.0 6.5 6.5 6.5 6.5 6.5 6.5 6.5 6.5 6.5 6.5 6.5 6.5 6.5 6.5 6.5 6.5 6.6 6.5 6.5 6.5 6.5 6.5 6.5 6.5 6.5 6.5 6.5 6.5 6.5 6.5 6.5 6.5 6.5 7.1 7.4 7.2 7.4 7.7 7.7 7.9
6.8 5.5 7.7 6.4 6.5 6.5 6.5 6.5 6.5 6.6 6.8 7.0 6.6 6.5 6.5 6.5 7.1 7.3 7.3 7.2 6.8 6.5 6.5 6.5 6.5 6.5 6.5 6.5 6.5 6.5 6.5 6.5 6.5 6.5 6.5 6.5 6.5 6.5 6.5 6.8 7.2 7.5 7.7 7.7 8.0
Wind_Speed
12 14 14 14 16 16 17 17 15 11 13 14 13 12 13 14 17 8 11 7 7 5 13 11 10 10 6 7 4 3 6 8 8 11 11 12 12 6 7 2 1 2 0 10 18
13 14 14 15 16 16 16 18 14 12 13 14 12 12 11 12 14 14 12 6 4 20 12 14 13 11 7 8 5 7 6 5 5 11 17 16 12 9 6 11 6 6 10 17 17
12 13 14 15 16 16 14 15 14 12 11 13 11 11 10 12 7 3 6 20 21 17 7 7 10 9 8 7 7 6 6 4 7 11 6 7 16 9 8 10 7 11 20 18 17
10 14 14 15 16 15 14 14 12 11 11 11 10 9 10 4 0 4 7 22 21 19 10 10 10 9 8 10 10 9 7 2 11 13 10 14 11 8 8 9 4 15 20 20 17
8 14 13 14 15 13 13 12 10 10 9 9 8 8 6 5 7 8 11 15 15 13 13 12 11 8 11 11 9 12 2 3 5 6 11 9 7 2 6 6 12 19 18 18 15
10 13 14 12 13 12 11 10 8 9 7 6 6 7 4 6 3 6 12 13 11 13 10 10 5 6 4 3 10 2 4 1 4 11 6 7 5 4 9 5 14 18 16 15 14
12 12 14 11 11 10 9 7 7 5 6 4 4 4 5 10 1 10 9 8 11 14 13 12 5 5 3 4 3 7 7 5 6 12 6 6 9 6 5 5 12 15 13 12 12
10 12 13 11 9 8 6 4 3 4 5 3 4 3 7 2 4 9 10 7 8 13 10 4 7 8 6 1 4 7 7 8 6 11 4 9 12 6 3 9 13 14 12 11 9
11 11 11 10 8 7 4 0 1 5 4 4 4 3 5 2 5 5 9 4 7 8 7 2 8 5 5 8 6 7 8 8 9 2 7 7 9 5 2 10 11 11 11 10 9
11 11 10 9 7 5 4 2 3 6 5 6 5 4 7 1 2 1 8 11 3 12 7 3 4 6 6 9 9 8 8 13 12 4 8 7 6 4 4 10 11 12 10 11 11
10 9 10 8 5 10 9 3 4 5 7 6 2 5 4 8 3 5 5 8 8 6 4 6 6 6 11 8 3 6 6 11 8 4 5 5 7 4 5 8 10 11 11 11 10
9 8 9 6 9 13 2 5 6 4 5 15 12 10 9 4 3 4 4 5 2 8 2 4 4 3 5 5 4 5 9 8 5 3 4 9 6 5 4 5 6 10 11 11 9
11 8 5 10 16 7 8 12 1 9 4 4 7 6 4 7 3 6 3 3 4 3 7 8 5 2 4 6 6 4 4 10 6 7 3 9 7 8 4 5 6 6 6 8 10
10 6 10 20 6 5 6 9 16 6 4 5 4 4 5 4 4 2 2 1 2 6 5 3 3 4 6 5 3 5 1 9 13 12 8 7 7 9 7 7 7 8 9 9 11
11 10 21 22 3 5 3 3 7 3 5 6 5 4 3 5 6 3 3 2 6 6 4 3 5 5 5 2 1 3 7 9 7 4 5 10 7 8 8 9 12 11 12 13 14
12 13 21 8 4 8 7 4 4 3 4 6 5 6 7 3 3 3 2 5 3 4 3 4 2 2 3 5 2 11 10 6 3 2 6 4 7 6 8 15 15 15 14 14 14
13 17 19 8 3 4 2 5 4 6 2 7 9 7 9 5 4 3 4 7 5 8 8 6 3 4 3 9 6 6 9 4 5 6 8 2 6 11 3 4 17 19 17 16 15
13 18 13 12 4 6 3 5 6 3 7 2 5 8 9 5 3 3 7 8 2 4 8 9 7 4 2 3 3 7 6 4 5 5 4 3 6 1 1 5 11 17 18 18 17
17 5 4 8 21 3 4 5 7 5 6 8 7 13 6 5 4 5 3 5 2 2 4 5 4 4 2 2 2 5 6 2 2 1 3 6 5 10 4 8 13 19 19 19 18
7 6 8 10 17 6 5 7 5 3 3 8 12 10 12 10 8 8 8 3 4 1 3 3 3 2 4 1 6 3 8 3 3 3 4 3 6 4 6 10 15 20 20 19 18
7 5 6 14 9 6 8 9 4 6 5 9 9 7 10 9 7 9 8 4 3 4 0 4 3 5 3 6 6 4 4 1 0 2 3 3 1 3 1 8 16 19 20 19 17
7 8 7 10 8 5 11 7 3 4 3 6 4 5 11 10 8 7 9 2 3 3 4 3 1 4 6 4 2 3 4 7 4 4 0 2 4 3 1 3 10 16 18 17 16
8 4 3 5 9 6 5 7 4 5 6 8 8 3 3 7 4 5 5 2 3 4 5 6 4 4 5 5 5 7 8 4 5 1 6 3 2 3 2 5 8 13 15 14 15
8 8 5 6 3 15 12 13 10 3 3 3 4 3 6 4 1 7 7 3 3 2 3 2 3 5 7 1 1 6 11 11 10 4 4 9 9 7 7 7 8 11 14 16 16
5 7 10 10 9 14 16 13 15 6 4 5 3 6 7 5 5 5 5 5 4 4 2 3 5 4 1 1 3 4 8 13 15 13 8 7 11 7 6 9 9 9 12 15 16
7 5 4 14 13 13 12 11 16 7 6 7 6 8 6 5 7 10 9 7 4 6 4 1 2 1 3 2 2 7 11 12 16 16 15 18 19 14 9 7 8 11 14 16 17
3 1 9 4 12 13 10 14 14 11 2 2 7 7 5 3 4 8 7 7 5 6 5 2 5 4 2 2 2 6 15 17 13 12 14 13 15 4 6 8 10 11 14 16 17
Wind_Direction
304 309 305 310 309 309 308 303 303 302 300 300 305 308 312 318 309 248 246 240 191 174 182 144 161 181 195 181 210 253 227 199 163 164 128 116 108 156 280 196 123 118 61 140 147
301 304 309 312 310 308 308 304 304 302 301 297 302 307 318 322 291 256 241 193 186 160 168 168 167 176 189 184 195 237 239 198 164 130 156 174 154 191 194 184 168 125 113 135 151
297 301 305 308 309 307 305 298 304 302 296 297 303 311 322 315 276 245 136 197 196 193 177 169 164 193 200 188 191 193 242 123 189 171 158 148 177 206 222 198 170 153 145 153 156
297 298 304 306 303 303 304 298 301 297 297 294 304 313 315 284 331 27 326 174 181 191 193 172 175 185 195 193 197 224 244 140 173 177 164 162 165 194 206 62 159 152 154 150 163
290 296 300 304 301 301 299 297 303 298 294 294 308 315 282 243 261 41 111 143 163 182 194 189 192 195 198 200 186 238 222 227 203 192 212 153 187 160 131 51 126 146 158 156 158
284 291 296 298 299 297 298 294 299 294 285 292 307 309 271 252 67 133 130 154 171 183 201 204 218 231 258 224 223 208 231 152 167 171 155 177 127 193 61 120 137 149 160 159 165
279 288 295 297 295 297 296 297 296 284 272 277 285 278 252 256 287 162 155 183 194 207 199 213 215 210 282 194 177 158 133 128 126 170 160 184 150 58 4 188 149 156 158 162 166
272 290 295 298 294 293 288 306 309 281 268 274 265 255 259 212 238 221 231 246 211 217 235 256 216 254 263 25 139 184 201 167 110 170 140 225 141 54 27 177 169 159 159 161 158
272 285 288 292 284 280 259 82 207 254 253 234 211 262 261 169 239 249 200 187 139 180 198 65 172 219 179 213 167 192 179 156 137 28 150 233 125 62 123 178 169 171 166 164 154
269 280 285 280 265 243 132 102 169 221 218 225 251 255 241 98 328 157 191 157 144 143 136 205 200 209 201 196 183 165 130 164 146 81 183 159 108 110 131 172 176 175 177 177 179
260 266 269 269 223 152 135 166 201 208 222 238 352 294 307 333 236 169 185 147 145 202 177 202 212 204 179 202 360 119 156 137 119 112 146 161 140 117 141 175 183 186 183 185 188
257 262 268 231 165 149 228 238 289 358 273 224 253 272 271 283 267 173 208 219 209 198 85 179 151 84 112 137 152 138 153 134 116 127 237 176 143 128 150 170 203 194 194 190 170
235 251 231 166 141 150 230 234 183 1 266 179 204 246 273 195 224 167 252 142 201 100 291 239 92 103 115 125 143 111 195 163 170 163 185 184 184 176 143 164 168 196 191 188 180
222 213 180 141 166 175 232 253 247 220 242 148 205 194 171 229 198 17 29 190 113 155 247 79 86 138 124 114 281 163 212 148 150 182 204 208 228 180 173 167 176 163 168 157 152
207 181 176 174 88 203 26 214 151 195 200 150 154 116 151 206 142 113 28 237 174 142 242 116 143 143 133 73 218 79 173 141 159 200 215 191 252 115 175 193 179 164 153 147 143
195 174 179 223 260 252 300 218 188 220 233 160 164 174 168 169 137 128 143 71 94 125 128 97 77 25 88 78 158 142 142 123 161 229 243 244 258 206 187 216 181 172 167 158 156
185 172 182 176 229 324 221 213 187 218 136 166 171 177 182 160 138 178 166 154 188 159 164 157 114 116 173 119 151 227 185 195 222 217 251 72 253 263 292 208 187 177 171 167 163
173 168 214 232 259 329 220 197 198 203 197 118 165 160 192 166 122 135 169 175 133 249 174 195 173 177 120 281 205 200 244 229 241 225 254 186 244 270 120 185 193 179 172 169 172
141 165 239 229 224 282 232 201 188 210 176 172 163 187 162 154 198 180 196 175 154 264 228 183 130 124 49 158 259 152 218 39 144 69 272 255 236 242 190 199 194 183 176 179 181
151 180 226 182 172 196 230 211 210 204 188 194 184 210 188 178 185 205 192 153 157 230 303 154 154 170 132 173 72 282 131 185 216 235 243 202 269 266 181 188 190 188 188 189 187
174 194 127 146 164 193 207 198 202 212 204 194 190 174 201 175 198 189 184 155 198 131 223 169 260 150 192 215 205 154 190 82 75 295 284 297 274 63 308 192 196 198 196 193 191
180 200 148 166 179 199 202 194 163 193 164 209 229 163 185 181 179 188 193 293 148 178 193 138 174 182 199 122 302 276 220 199 237 184 163 321 287 143 190 231 210 207 202 201 195
176 149 143 232 184 187 162 181 208 188 185 186 185 189 173 168 173 183 172 81 180 202 182 174 204 178 168 172 191 225 195 191 117 137 206 191 260 169 216 226 214 220 202 202 195
168 170 150 205 229 181 180 186 195 200 174 173 146 135 143 157 73 168 159 145 141 154 47 197 197 245 238 42 266 197 198 199 205 205 208 235 262 205 222 226 216 214 204 199 195
197 192 168 179 197 189 187 175 188 168 201 191 146 203 170 154 159 172 163 148 141 151 144 228 237 216 226 117 220 253 225 206 215 230 221 266 252 269 249 239 236 211 199 199 195
170 179 180 158 165 174 181 185 193 159 186 181 199 156 165 178 196 187 169 189 178 168 174 130 202 204 230 216 268 263 246 235 231 244 253 262 270 279 258 256 221 203 199 203 200
133 154 180 172 175 184 185 177 197 150 83 25 151 137 145 91 63 64 81 79 115 170 154 147 147 164 243 345 276 280 243 228 227 230 242 250 260 223 197 227 229 216 210 209 205